Regional Weather Roundup
Issued by NWS

Home | Current Version | Previous Version | Text Only | Print | Product List | Glossary On
Versions: 1 2 3 4 5 6 7 8 9 10 11 12 13 14 15 16 17 18 19 20 21 22 23 24 25 26 27 28 29 30 31 32 33 34 35 36 37 38 39 40 41 42 43 44 45 46 47 48 49 50
000
ASUS43 KTOP 282208
RWRKS

WEATHER ROUNDUP FOR KANSAS
NATIONAL WEATHER SERVICE GOODLAND KS
500 PM CDT MON JUL 28 2014

NOTE:  "FAIR" INDICATES FEW OR NO CLOUDS BELOW 12,000 FEET WITH NO
SIGNIFICANT WEATHER AND/OR OBSTRUCTIONS TO VISIBILITY.

KSZ001>006-013>018-027>032-041>047-282300-
NORTHWEST KANSAS

CITY           SKY/WX    TMP DP  RH WIND       PRES   REMARKS
GOODLAND       SUNNY     84  53  34 S14G21    30.26F
HAYS           SUNNY     88  57  35 S9        30.22F
HILL CITY      SUNNY     89  54  30 S6G18     30.21F
RUSSELL        SUNNY     87  56  34 N5        30.20F
$$

KSZ061>065-074>080-084>089-282300-
SOUTHWEST KANSAS

CITY           SKY/WX    TMP DP  RH WIND       PRES   REMARKS
DODGE CITY     MOSUNNY   84  57  39 S15       30.25F
ELKHART          N/A     73  58  59 S12         N/A
GARDEN CITY    MOSUNNY   83  54  36 S10       30.26F
GREAT BEND     SUNNY     84  55  37 CALM      30.20F
LIBERAL        PTSUNNY   81  55  41 S15       30.30F
PRATT          MOSUNNY   86  52  30 SW3       30.23F
$$

KSZ066>073-081>083-090>101-282300-
SOUTHEAST KANSAS

CITY           SKY/WX    TMP DP  RH WIND       PRES   REMARKS
CHANUTE        SUNNY     85  57  38 N9        30.17F
COFFEYVILLE    SUNNY     86  55  34 NW7       30.15F
HUTCHINSON     SUNNY     86  57  37 VRB5      30.20F
MEDICINE LODGE   N/A     88  56  33 S5        30.19F
NEWTON         SUNNY     86  54  32 N13       30.23F
PARSONS        SUNNY     87  56  34 N8        30.17F
WICHITA INTL   MOSUNNY   86  59  39 N12G17    30.19F
WICHITA JABRA  SUNNY     88  58  36 N13G20    30.19F
WICHITA MCCONL SUNNY     87  56  35 N7        30.19F
WINFIELD       MOSUNNY   88  59  37 N9        30.19F
$$

KSZ007>012-019>026-033>040-048>060-102>105-282300-
NORTHEAST KANSAS

CITY           SKY/WX    TMP DP  RH WIND       PRES   REMARKS
CONCORDIA      SUNNY     82  57  42 NE10      30.21F
EMPORIA        SUNNY     84  53  34 NW5       30.17F
LAWRENCE       MOSUNNY   83  60  45 N8        30.18F
MANHATTAN      SUNNY     84  54  35 N9G18     30.18F
MARYSVILLE     SUNNY     79  57  47 N7        30.21F
OLATHE IND     SUNNY     79  57  46 N15       30.19F
OLATHE EXE     MOSUNNY   79  57  46 N12       30.17F
SALINA         SUNNY     89  54  30 N13       30.19F
TOPEKA BILLARD SUNNY     84  56  38 N7        30.18F
TOPEKA FORBES  MOSUNNY   84  55  36 N14       30.18F
$$



USA.gov is the U.S. government's official web portal to all federal, state and local government web resources and services.